sat.trackr.live / text

‹ back to catalog

STARLINK-36048

NORAD 66603 · 2025-270R

PAYLOAD ACTIVE UNKNOWN

§ Identity

Operator
Country
US
Launch date
2025-11-22
Launch site
AFETR
Launch vehicle
Mass (kg)
RCS (m²)

Purposes: comms

External: N2YO · Heavens-Above · Gunter

§ Orbital elements

Epoch: 2026-09-20T20:02:17.466432Z

Period
94.27 min
Inclination
43.0018°
Eccentricity
0.0001471
Mean motion
15.27588189 rev/d
Perigee alt
482.0 km
Apogee alt
484.0 km
Semi-major
6,861.2 km
B*
3.7665e-4
RAAN
33.8541°
Arg perigee
265.9400°
Mean anomaly
94.1283°
Rev number
4,745

§ Raw data

STARLINK-360481 66603U 25270R   26263.83492438  .00010119  00000+0  37665-3 0  99982 66603  43.0018  33.8541 0001471 265.9400  94.1283 15.27588189 47453

JSON: /api/v1/satellites/66603 · /tle

For live sub-satellite position, see the globe view (requires WebGL).

§ Visibility from observer

Set your observer location to see the next 7 days of passes ≥ 10°. The values pass through the URL so the page stays shareable.

No JS? Fill the form by hand. The geolocation button needs JavaScript.